[[{"header":{"parameterUnit":"m.s-1","parameterCategory":1,"la1":30.2991,"la2":30.254,"lo1":-89.0895,"lo2":-89.0444,"dy":0.0017,"dx":0.0017,"nx":28,"ny":28,"refTime":"2025-07-16T03:00:00:Z","depth":0,"parameterNumber":2,"parameterNumberName":"U-component_of_WINDS"},"data":[0,0,0,0,0,0,0,0,0,0,0,0,0,0,0,0,0,0,0,0,0,0,0,0,0,0,0,0,0,0,0,0,0,0,0,0,0,0,0,0,0,0,0,0,0,0,0,0,0,0,0,0,0,0,0,0,0,0,-0.4302,-0.4301,0,-0.4283,-0.4282,-0.4282,-0.431,-0.4311,-0.4312,-0.4312,-0.4293,-0.4292,-0.429,0,0,0,0,0,0,0,0,0,0,0,0,0,-0.4363,-0.4362,-0.4302,-0.4301,-0.4301,-0.4283,-0.4282,-0.4282,-0.4309,-0.4311,-0.4312,-0.4313,-0.4293,-0.4292,-0.429,0,0,0,0,0,0,0,0,0,0,0,0,0,-0.4339,-0.4362,-0.4302,-0.4313,-0.4313,-0.4283,-0.4282,-0.4282,-0.4309,-0.4311,-0.4312,-0.4313,-0.4294,-0.4292,-0.429,-0.4248,0,0,-0.4283,-0.4282,0,0,0,0,0,0,0,0,-0.4341,-0.4337,-0.4311,-0.4312,-0.4313,-0.43,-0.4297,-0.427,-0.4309,-0.4311,-0.4312,-0.4314,-0.4294,-0.4292,-0.4285,-0.4247,-0.4246,-0.4283,-0.4282,-0.4281,-0.428,0,0,0,0,0,0,0,-0.4342,-0.4338,-0.4294,-0.4311,-0.4312,-0.4319,-0.4317,-0.4292,-0.4295,-0.4311,-0.4313,-0.431,-0.4295,-0.4287,-0.4285,-0.4246,-0.4283,-0.4281,-0.428,-0.4279,-0.4172,-0.4171,0,0,0,0,0,0,-0.4343,-0.4339,-0.4295,-0.4294,-0.4331,-0.4317,-0.4315,-0.4303,-0.4295,-0.4295,-0.4309,-0.4311,-0.429,-0.4288,-0.4284,-0.4235,-0.4281,-0.4279,-0.4278,-0.4174,-0.4172,-0.417,0,0,0,0,0,0,-0.4344,-0.4338,-0.4296,-0.4317,-0.4312,-0.4314,-0.43,-0.4301,-0.4294,-0.4293,-0.4294,-0.4301,-0.4291,-0.4287,-0.4257,-0.4235,-0.4278,-0.4276,-0.4176,-0.4173,-0.4171,-0.4135,0,0,0,0,0,0,-0.4345,-0.4339,-0.4322,-0.4316,-0.4311,-0.4268,-0.4299,-0.43,-0.429,-0.4293,-0.4286,-0.4286,-0.4292,-0.426,-0.4255,-0.4232,-0.4274,-0.4178,-0.4174,-0.4172,-0.4138,-0.4132,-0.4126,0,0,0,0,0,-0.4348,-0.4313,-0.4321,-0.4316,-0.429,-0.4266,-0.4263,-0.4271,-0.4288,-0.4272,-0.4272,-0.4286,-0.4238,-0.4256,-0.4251,-0.4228,-0.4179,-0.4175,-0.4172,-0.4141,-0.4133,-0.4126,0,0,0,0,0,0,-0.4316,-0.4312,-0.4321,-0.4284,-0.4275,-0.4271,-0.425,-0.4262,-0.4248,-0.4252,-0.4262,-0.426,-0.4227,-0.4225,-0.4245,-0.4187,-0.4211,-0.4207,-0.419,-0.4182,-0.4176,-0.4177,-0.4273,0,0,0,0,0,-0.4304,-0.4285,-0.4283,-0.425,-0.4245,-0.4248,-0.4238,-0.4245,-0.4236,-0.4233,-0.4231,-0.4222,-0.4205,-0.4193,-0.4178,-0.4138,-0.4137,-0.4119,-0.4113,-0.4109,-0.4104,-0.4084,-0.4076,-0.4159,-0.4159,-0.4159,0,0,-0.428,-0.4276,-0.4263,-0.4243,-0.4237,-0.4217,-0.4245,-0.4223,-0.4208,-0.423,-0.42,-0.4198,-0.419,-0.4154,-0.4139,-0.4151,-0.4081,-0.4104,-0.41,-0.4098,-0.4079,-0.4071,-0.4064,-0.4156,-0.4157,-0.4157,0,0,-0.4226,-0.4221,-0.4193,-0.4187,-0.4178,-0.4181,-0.4174,-0.4168,-0.4168,-0.4139,-0.4155,-0.4138,-0.4108,-0.4101,-0.4094,-0.4039,-0.4052,-0.4034,-0.4002,-0.3982,-0.3975,-0.397,-0.395,-0.3943,-0.4029,-0.4029,-0.4029,0,-0.4198,-0.4168,-0.4177,-0.4154,-0.4145,-0.4164,-0.4136,-0.413,-0.4116,-0.4109,-0.4123,-0.4087,-0.4082,-0.4046,-0.4033,-0.4026,-0.4019,-0.4034,-0.3976,-0.397,-0.3965,-0.3946,-0.3939,-0.4027,-0.4027,-0.4028,-0.4028,0,-0.4133,-0.4113,-0.4091,-0.4078,-0.4066,-0.4041,-0.4047,-0.4034,-0.4042,-0.4044,-0.4014,-0.401,-0.3994,-0.3986,-0.3993,-0.3951,-0.3959,-0.3974,-0.3999,-0.3954,-0.3937,-0.393,-0.4024,-0.4025,-0.4025,-0.4026,0,0,-0.4058,-0.4051,-0.4042,-0.4037,-0.4029,-0.4013,-0.3989,-0.3973,-0.3963,-0.3953,-0.3933,-0.3908,-0.3922,-0.3914,-0.3921,-0.3903,-0.3861,-0.3921,-0.3921,-0.391,-0.3814,-0.3802,-0.3794,-0.3869,-0.3868,-0.3867,-0.3815,0,-0.4004,-0.3962,-0.397,-0.3929,-0.391,-0.3929,-0.3908,-0.3901,-0.3902,-0.3886,-0.3888,-0.387,-0.389,-0.3885,-0.3869,-0.3869,-0.3841,-0.3873,-0.3851,-0.385,-0.3852,-0.3785,-0.3772,-0.3723,-0.3808,-0.3807,-0.3806,0,-0.3935,-0.3923,-0.388,-0.3876,-0.3869,-0.3849,-0.3836,-0.3821,-0.3814,-0.3816,-0.3807,-0.3818,-0.3795,-0.382,-0.3788,-0.381,-0.3801,-0.38,-0.3799,-0.3797,-0.3825,-0.3781,-0.3707,-0.37,-0.3795,-0.3796,-0.3797,0,-0.3885,-0.3858,-0.3829,-0.3823,-0.3818,-0.3804,-0.3801,-0.3795,-0.3786,-0.3775,-0.3769,-0.3755,-0.3747,-0.3736,-0.3743,-0.3761,-0.371,-0.3736,-0.3711,-0.3711,-0.3699,-0.37,-0.3623,-0.3694,-0.3694,-0.3694,-0.3694,0,-0.3824,-0.3797,-0.3806,-0.3788,-0.3759,-0.3769,-0.374,-0.3739,-0.3734,-0.3717,-0.3732,-0.3715,-0.3726,-0.371,-0.3716,-0.3688,-0.3685,-0.3686,-0.3688,-0.3684,-0.3684,-0.3679,-0.3682,-0.3692,-0.3693,-0.3693,-0.3693,0,-0.3761,-0.3767,-0.3736,-0.3734,-0.3733,-0.3711,-0.3709,-0.3693,-0.3696,-0.3673,-0.3669,-0.3673,-0.3655,-0.3662,-0.3643,-0.3647,-0.3612,-0.3618,-0.3614,-0.3616,-0.359,-0.3593,-0.3507,-0.3497,-0.3575,-0.3574,-0.3573,0,-0.3722,-0.3702,-0.3697,-0.3687,-0.3683,-0.3666,-0.3656,-0.3666,-0.3656,-0.3647,-0.3631,-0.3615,-0.3603,-0.3574,-0.3576,-0.3562,-0.3568,-0.3539,-0.3566,-0.3563,-0.3567,-0.3568,-0.3566,-0.3533,-0.3532,-0.3532,-0.3531,0,-0.3651,-0.3655,-0.3641,-0.3628,-0.3616,-0.3606,-0.3597,-0.3588,-0.3597,-0.3585,-0.3567,-0.3558,-0.3539,-0.3523,-0.3511,-0.3508,-0.3521,-0.3523,-0.3516,-0.3512,-0.3511,-0.3511,-0.3599,-0.3524,-0.3525,-0.3526,-0.3526,-0.3526,-0.3599,-0.3582,-0.3577,-0.3561,-0.3555,-0.3547,-0.3532,-0.3533,-0.3519,-0.3504,-0.3511,-0.3491,-0.3485,-0.347,-0.3466,-0.345,-0.3462,-0.3452,-0.345,-0.3447,-0.3444,-0.3514,-0.3448,-0.3449,-0.3449,-0.3449,-0.3449,0,-0.3529,-0.3527,-0.3512,-0.35,-0.3487,-0.3501,-0.3493,-0.3481,-0.3463,-0.3457,-0.3445,-0.3425,-0.341,-0.3411,-0.3397,-0.3385,-0.339,-0.3381,-0.3381,-0.3381,-0.3435,-0.3442,-0.3376,-0.3376,-0.3376,-0.3376,-0.3376,-0.3376,-0.3491,-0.3464,-0.3467,-0.3437,-0.3435,-0.3416,-0.341,-0.3403,-0.3398,-0.3375,-0.3363,-0.3364,-0.336,-0.3347,-0.3334,-0.3334,-0.3328,-0.3317,-0.3319,-0.337,-0.3377,-0.3384,-0.339,-0.3315,-0.3315,-0.3267,-0.3266,-0.3266]},{"header":{"parameterUnit":"m.s-1","parameterCategory":1,"la1":30.2991,"la2":30.254,"lo1":-89.0895,"lo2":-89.0444,"dy":0.0017,"dx":0.0017,"nx":28,"ny":28,"refTime":"2025-07-16T03:00:00:Z","depth":0,"parameterNumber":3,"parameterNumberName":"V-component_of_WINDS"},"data":[0,0,0,0,0,0,0,0,0,0,0,0,0,0,0,0,0,0,0,0,0,0,0,0,0,0,0,0,0,0,0,0,0,0,0,0,0,0,0,0,0,0,0,0,0,0,0,0,0,0,0,0,0,0,0,0,0,0,-0.1467,-0.1466,0,-0.1363,-0.1361,-0.136,-0.1323,-0.1323,-0.1323,-0.1324,-0.1213,-0.121,-0.1207,0,0,0,0,0,0,0,0,0,0,0,0,0,-0.1629,-0.1627,-0.1467,-0.1466,-0.1464,-0.1363,-0.1361,-0.136,-0.1323,-0.1323,-0.1324,-0.1324,-0.1214,-0.121,-0.1206,0,0,0,0,0,0,0,0,0,0,0,0,0,-0.1545,-0.1626,-0.1467,-0.1434,-0.1429,-0.1363,-0.1361,-0.136,-0.1322,-0.1323,-0.1324,-0.1324,-0.1216,-0.1211,-0.1206,-0.1164,0,0,-0.1191,-0.1189,0,0,0,0,0,0,0,0,-0.155,-0.1539,-0.144,-0.1436,-0.1431,-0.1356,-0.1378,-0.1294,-0.1322,-0.1363,-0.1324,-0.1324,-0.126,-0.1252,-0.1231,-0.1159,-0.1154,-0.119,-0.1187,-0.1185,-0.1184,0,0,0,0,0,0,0,-0.1556,-0.1544,-0.1425,-0.1438,-0.1433,-0.1422,-0.1411,-0.1362,-0.1309,-0.1359,-0.1357,-0.1345,-0.1258,-0.1235,-0.1228,-0.1153,-0.119,-0.1186,-0.1183,-0.1181,-0.104,-0.104,0,0,0,0,0,0,-0.1568,-0.1549,-0.1429,-0.1422,-0.1493,-0.1419,-0.1406,-0.138,-0.131,-0.13,-0.1345,-0.1344,-0.1244,-0.1234,-0.1224,-0.117,-0.1185,-0.1181,-0.1178,-0.1041,-0.104,-0.1039,0,0,0,0,0,0,-0.1572,-0.1558,-0.1433,-0.1485,-0.1468,-0.1416,-0.1386,-0.1377,-0.1355,-0.1299,-0.1289,-0.1332,-0.1244,-0.1231,-0.1179,-0.1165,-0.1178,-0.1174,-0.1042,-0.1041,-0.104,-0.1062,0,0,0,0,0,0,-0.1576,-0.1559,-0.1544,-0.1485,-0.1465,-0.1392,-0.1385,-0.1375,-0.1347,-0.1345,-0.1284,-0.1274,-0.1243,-0.1187,-0.1174,-0.1159,-0.117,-0.1043,-0.1041,-0.104,-0.1062,-0.1061,-0.1061,0,0,0,0,0,-0.1582,-0.1553,-0.1543,-0.1529,-0.1445,-0.1391,-0.138,-0.1345,-0.1346,-0.1329,-0.1293,-0.1276,-0.1169,-0.1182,-0.1167,-0.115,-0.1044,-0.1042,-0.104,-0.1062,-0.1061,-0.1061,0,0,0,0,0,0,-0.1611,-0.1545,-0.1533,-0.1484,-0.1444,-0.1385,-0.1363,-0.1346,-0.1303,-0.1303,-0.1261,-0.1247,-0.1199,-0.1169,-0.1185,-0.1106,-0.1105,-0.11,-0.1127,-0.1126,-0.1125,-0.1133,-0.1166,0,0,0,0,0,-0.1612,-0.1574,-0.1518,-0.1481,-0.1461,-0.1416,-0.139,-0.1368,-0.1323,-0.1306,-0.1265,-0.1222,-0.1178,-0.115,-0.1107,-0.1058,-0.1043,-0.1038,-0.1038,-0.1038,-0.1034,-0.1005,-0.1002,-0.1034,-0.1034,-0.1034,0,0,-0.1612,-0.1572,-0.1551,-0.1485,-0.1451,-0.1412,-0.1401,-0.136,-0.1331,-0.1299,-0.1248,-0.1217,-0.1166,-0.1115,-0.1091,-0.1089,-0.1022,-0.1036,-0.1036,-0.1032,-0.1003,-0.1,-0.0997,-0.1032,-0.1033,-0.1033,0,0,-0.1594,-0.156,-0.1525,-0.1491,-0.144,-0.141,-0.1401,-0.1345,-0.1324,-0.1272,-0.1248,-0.1211,-0.1137,-0.1101,-0.1073,-0.1041,-0.1024,-0.1028,-0.1025,-0.0997,-0.0995,-0.0992,-0.098,-0.0977,-0.1025,-0.1025,-0.1025,0,-0.1601,-0.1543,-0.1508,-0.1469,-0.1441,-0.1411,-0.1375,-0.1343,-0.128,-0.126,-0.1259,-0.1166,-0.1129,-0.1069,-0.1062,-0.104,-0.1028,-0.1035,-0.0998,-0.0995,-0.0993,-0.0981,-0.0976,-0.1026,-0.1026,-0.1025,-0.1025,0,-0.1553,-0.1513,-0.1491,-0.1432,-0.1401,-0.1363,-0.1322,-0.1294,-0.1274,-0.1244,-0.1191,-0.1146,-0.1093,-0.1077,-0.1057,-0.1014,-0.1015,-0.1007,-0.1005,-0.0991,-0.0979,-0.0974,-0.1027,-0.1027,-0.1026,-0.1026,0,0,-0.155,-0.1473,-0.1465,-0.1438,-0.1379,-0.1347,-0.1307,-0.1257,-0.1233,-0.1191,-0.1155,-0.1094,-0.1086,-0.1054,-0.1029,-0.1005,-0.0982,-0.0999,-0.0997,-0.0997,-0.0931,-0.0937,-0.0933,-0.097,-0.0969,-0.0968,-0.0935,0,-0.1523,-0.1453,-0.142,-0.1364,-0.1325,-0.1297,-0.1262,-0.1222,-0.1192,-0.1154,-0.1121,-0.1078,-0.1071,-0.1052,-0.1027,-0.099,-0.0968,-0.0992,-0.0935,-0.0934,-0.0949,-0.0926,-0.0933,-0.0904,-0.093,-0.0929,-0.0929,0,-0.1483,-0.1442,-0.1381,-0.1327,-0.131,-0.128,-0.123,-0.1195,-0.1148,-0.1128,-0.1093,-0.1069,-0.1025,-0.1027,-0.0965,-0.0982,-0.0957,-0.0936,-0.0934,-0.0927,-0.093,-0.0918,-0.0894,-0.0889,-0.0921,-0.0922,-0.0922,0,-0.1485,-0.1415,-0.1369,-0.1347,-0.1283,-0.1262,-0.1234,-0.1188,-0.1159,-0.1116,-0.1097,-0.1048,-0.1021,-0.0984,-0.0947,-0.0952,-0.0888,-0.0887,-0.0869,-0.087,-0.0857,-0.0858,-0.0828,-0.0842,-0.0842,-0.0842,-0.0842,0,-0.1459,-0.1423,-0.137,-0.1342,-0.13,-0.1263,-0.1223,-0.1192,-0.1152,-0.1116,-0.1088,-0.1055,-0.1009,-0.097,-0.0941,-0.0893,-0.0881,-0.0863,-0.0856,-0.0866,-0.0868,-0.0848,-0.0849,-0.0841,-0.0841,-0.0841,-0.0841,0,-0.1455,-0.1418,-0.1367,-0.131,-0.1295,-0.1267,-0.1218,-0.1189,-0.1159,-0.1114,-0.1102,-0.1053,-0.1005,-0.0965,-0.0902,-0.0883,-0.0833,-0.0825,-0.085,-0.0845,-0.083,-0.0831,-0.0785,-0.0777,-0.0797,-0.0797,-0.0797,0,-0.144,-0.1412,-0.1353,-0.1328,-0.1301,-0.1261,-0.1232,-0.1194,-0.1165,-0.1109,-0.1087,-0.1038,-0.0996,-0.0921,-0.088,-0.0831,-0.0821,-0.0808,-0.0813,-0.0824,-0.082,-0.0822,-0.0818,-0.0807,-0.0807,-0.0807,-0.0807,0,-0.1418,-0.1401,-0.1362,-0.1315,-0.1282,-0.1243,-0.1204,-0.1184,-0.1139,-0.1107,-0.1059,-0.1027,-0.0963,-0.0914,-0.0861,-0.0831,-0.0811,-0.0806,-0.0799,-0.0809,-0.0824,-0.0815,-0.0848,-0.0807,-0.0807,-0.0807,-0.0807,-0.0807,-0.1408,-0.1381,-0.1336,-0.1292,-0.1259,-0.1222,-0.1193,-0.1159,-0.1118,-0.1064,-0.1044,-0.0994,-0.0947,-0.0874,-0.0844,-0.0803,-0.0801,-0.0791,-0.0788,-0.0786,-0.0788,-0.0831,-0.0794,-0.0794,-0.0794,-0.0794,-0.0793,0,-0.1384,-0.1353,-0.1314,-0.126,-0.1225,-0.1211,-0.1166,-0.1138,-0.1095,-0.1054,-0.1014,-0.0958,-0.091,-0.0865,-0.0815,-0.0791,-0.0781,-0.0779,-0.078,-0.0773,-0.0793,-0.0804,-0.0789,-0.0789,-0.0789,-0.0789,-0.0789,-0.0789,-0.1367,-0.1322,-0.1299,-0.1237,-0.1206,-0.1158,-0.1134,-0.11,-0.1066,-0.1006,-0.0967,-0.0938,-0.0894,-0.084,-0.0796,-0.0783,-0.0766,-0.0767,-0.0752,-0.0771,-0.0772,-0.0773,-0.0783,-0.0763,-0.0763,-0.0735,-0.0735,-0.0735]}]]